Tracking 33744 objects as of 12-Apr-2026
HD Live streaming from Space Station
objects crossing your sky now

COSMOS 1137

Track COSMOS 1137 now!
10-day predictions
COSMOS 1137 is classified as:


NORAD ID: 11545
Int'l Code: 1979-084H
Perigee: 1,479.0 km
Apogee: 1,521.4 km
Inclination: 74.0 °
Period: 115.8 minutes
Semi major axis: 7871 km
RCS: 0.7275 m2 (medium)
Launch date: September 25, 1979
Source: Commonwealth of Independent States (former USSR) (CIS)
Launch site: PLESETSK MISSILE AND SPACE COMPLEX (PKMTR)
Your satellite tracking list
Your tracking list is empty




NASA's NSSDC Master Catalog

Two Line Element Set (TLE):
1 11545U 79084H   26101.38525617 -.00000012  00000-0  26330-4 0  9993
2 11545  74.0274 340.6195 0026916 211.9956 262.4142 12.43197408112225
Source of the keplerian elements: AFSPC